Terug naar catalogus

STARLINK-2495

ActiefCommunicatieVLEO
NORAD 48325·PAYLOAD·🇺🇸 United States

Gelanceerd Apr 29, 2021 vanaf Cape Canaveral Space Force Station

Loading…

Volgende Passages (komende 24 uur)

TLE

VersSource: CelesTrak SupGP

Epoch: Sep 15, 2026, 01:26 UTC

1 48325C 21036BB  26258.06020833  .00038132  00000+0  12258-2 0  2583
2 48325  53.1585 299.8832 0001331  86.6540  11.9239 15.31693609    18

Volg STARLINK-2495 in realtime met AllMySat

Download on the App Store